Flag for U.S.A. Weather past 2 weeks in Aurora, Colorado, U.S.A.

Now
58 °F

Passing clouds.


Feels Like: 58 °F
Forecast: 56 / 78 °F
Wind: 6 mph from South

Location: Buckley Air Force Base

Current Time: Aug 1, 2014 at 1:52:24 AM

Latest Report: Aug 1, 2014 at 12:58 AM


Visibility: 10 mi

Pressure: 30.12 "Hg

Humidity: 89%

Dew point: 55 °F

Location of AuroraLocation

Historic Weather in Aurora — Graph

°F

Aurora temperature yesterday

Maximum temperature yesterday: 72 °F (at 4:58 PM)
Minimum temperature yesterday: 56 °F (at 1:58 AM)
Average temperature yesterday: 63 °F

Past Weeks' High & Low Weather Summary

 TemperatureHumidityPressure
High93 °F (Jul 24, 3:58 PM)100% (Jul 17, 12:58 AM)30.35 "Hg (Jul 17, 12:58 AM)
Low55 °F (Jul 17, 12:58 AM)14% (Jul 20, 1:58 PM)29.78 "Hg (Jul 20, 12:58 AM)
Average71 °F57%30.00 "Hg
* Reported Jul 16 11:58 PM — Jul 31 11:58 PM, Aurora, Weather by CustomWeather, © 2014

Note: Actual official high and low records may vary slightly from our data, if they occured in-between our weather recording intervals... More about our weather records

Advertising

Aurora weather history for previous 24 hours

 ConditionsComfort  
Time TempWeatherWind HumidityBarometerVisibility
11:58 PM
Jul 31
59 °FPassing clouds.8 mph82%30.14 "Hg10 mi
10:58 PM61 °FPassing clouds.7 mph74%30.13 "Hg10 mi
9:58 PM62 °FPassing clouds.6 mph70%30.13 "Hg10 mi
8:58 PM68 °FPartly sunny.2 mph50%30.10 "Hg10 mi
7:58 PM68 °FPartly sunny.5 mph60%30.11 "Hg10 mi
6:58 PM72 °FPartly sunny.6 mph44%30.09 "Hg10 mi
5:58 PM71 °FBroken clouds.No wind50%30.10 "Hg10 mi
4:58 PM72 °FBroken clouds.No wind47%30.10 "Hg10 mi
3:58 PM71 °FBroken clouds.2 mph51%30.11 "Hg10 mi
2:58 PM70 °FBroken clouds.3 mph54%30.13 "Hg10 mi
1:58 PM69 °FPartly sunny.2 mph57%30.14 "Hg10 mi
12:58 PM69 °FBroken clouds.No wind57%30.16 "Hg10 mi
11:58 AM66 °FBroken clouds.No wind65%30.17 "Hg10 mi
10:58 AM62 °FBroken clouds.1 mph77%30.18 "Hg10 mi
9:58 AM60 °FMostly cloudy.3 mph85%30.19 "Hg10 mi
8:58 AM58 °FMostly cloudy.5 mph91%30.19 "Hg10 mi
7:58 AM58 °FMostly cloudy.No wind99%30.19 "Hg10 mi
6:58 AM57 °FLight rain. Fog.2 mph100%30.19 "Hg6 mi
5:58 AM56 °FPassing clouds.No wind99%30.17 "Hg10 mi
4:58 AM56 °FPassing clouds.2 mph99%30.15 "Hg10 mi
3:58 AM57 °FPassing clouds.5 mph96%30.15 "Hg10 mi
2:58 AM57 °FMostly cloudy.7 mph99%30.15 "Hg10 mi
1:58 AM56 °FMostly cloudy.7 mph100%30.17 "Hg10 mi
Weather by CustomWeather, © 2014

See weather overviewHow to use our weather pages